| time (UTC) | temp C | wind direction | speed KPH | gust KPH | rain 1hr cm | rain 24hr cm | rain mn cm | humidity % | barometer mb |
| 20260510120541 | 15 | 11 | 12.9 | 25.7 | 0.00 | 0.00 | 0.00 | 60 | 1018.0 |
| 20260510120052 | 15 | 25 | 11.3 | 29.0 | 0.00 | 0.00 | 0.00 | 60 | 1017.9 |
| 20260510115539 | 15 | 28 | 14.5 | 29.0 | 0.00 | 0.00 | 0.00 | 60 | 1017.6 |
| 20260510115040 | 15 | 16 | 12.9 | 22.5 | 0.00 | 0.00 | 0.00 | 60 | 1017.4 |
| 20260510114549 | 16 | 40 | 11.3 | 24.1 | 0.00 | 0.00 | 0.00 | 60 | 1017.3 |
| 20260510114040 | 16 | 42 | 12.9 | 24.1 | 0.00 | 0.00 | 0.00 | 60 | 1017.2 |
| 20260510113539 | 16 | 33 | 11.3 | 25.7 | 0.00 | 0.00 | 0.00 | 60 | 1017.2 |
| 20260510113052 | 16 | 360 | 12.9 | 25.7 | 0.00 | 0.00 | 0.00 | 60 | 1016.8 |
| 20260510112539 | 16 | 36 | 14.5 | 25.7 | 0.00 | 0.00 | 0.00 | 60 | 1016.6 |
| 20260510112043 | 16 | 11 | 16.1 | 25.7 | 0.00 | 0.00 | 0.00 | 61 | 1016.4 |
| 20260510111555 | 16 | 36 | 11.3 | 27.4 | 0.00 | 0.00 | 0.00 | 61 | 1016.4 |
| 20260510111039 | 16 | 16 | 11.3 | 27.4 | 0.00 | 0.00 | 0.00 | 61 | 1016.0 |
| 20260510110539 | 16 | 11 | 11.3 | 20.9 | 0.00 | 0.00 | 0.00 | 61 | 1016.1 |
| 20260510110050 | 16 | 50 | 12.9 | 20.9 | 0.00 | 0.00 | 0.00 | 60 | 1015.9 |
| 20260510105540 | 16 | 25 | 12.9 | 22.5 | 0.00 | 0.00 | 0.00 | 60 | 1015.7 |
| 20260510105040 | 16 | 13 | 14.5 | 25.7 | 0.00 | 0.00 | 0.00 | 60 | 1015.5 |
| 20260510104605 | 16 | 31 | 16.1 | 27.4 | 0.00 | 0.00 | 0.00 | 60 | 1015.7 |
| 20260510104042 | 16 | 38 | 11.3 | 27.4 | 0.00 | 0.00 | 0.00 | 60 | 1015.8 |
| 20260510103539 | 16 | 34 | 17.7 | 27.4 | 0.00 | 0.00 | 0.00 | 59 | 1015.6 |
| 20260510103045 | 16 | 30 | 11.3 | 25.7 | 0.00 | 0.00 | 0.00 | 59 | 1015.5 |
| 20260510102540 | 16 | 47 | 16.1 | 25.7 | 0.00 | 0.00 | 0.00 | 59 | 1015.3 |
| 20260510102040 | 16 | 53 | 14.5 | 25.7 | 0.00 | 0.00 | 0.00 | 60 | 1015.4 |
| 20260510101545 | 16 | 36 | 11.3 | 25.7 | 0.00 | 0.00 | 0.00 | 60 | 1015.3 |
| 20260510101043 | 16 | 33 | 11.3 | 20.9 | 0.00 | 0.00 | 0.00 | 60 | 1015.1 |
| 20260510100542 | 16 | 22 | 12.9 | 22.5 | 0.00 | 0.00 | 0.00 | 60 | 1014.9 |
| 20260510100049 | 16 | 19 | 11.3 | 24.1 | 0.00 | 0.00 | 0.00 | 60 | 1014.9 |
| 20260510095540 | 16 | 30 | 11.3 | 24.1 | 0.00 | 0.00 | 0.00 | 61 | 1014.9 |
| 20260510095038 | 16 | 29 | 9.7 | 19.3 | 0.00 | 0.00 | 0.00 | 61 | 1014.9 |
| 20260510094547 | 16 | 40 | 8.0 | 16.1 | 0.00 | 0.00 | 0.00 | 61 | 1014.7 |
| 20260510094043 | 16 | 16 | 9.7 | 17.7 | 0.00 | 0.00 | 0.00 | 62 | 1014.7 |
| 20260510093540 | 16 | 25 | 8.0 | 22.5 | 0.00 | 0.00 | 0.00 | 62 | 1014.7 |
| 20260510093049 | 16 | 26 | 9.7 | 22.5 | 0.00 | 0.00 | 0.00 | 61 | 1014.4 |
| 20260510092619 | 16 | 19 | 11.3 | 22.5 | 0.00 | 0.00 | 0.00 | 61 | 1014.3 |
| 20260510092044 | 16 | 39 | 11.3 | 19.3 | 0.00 | 0.00 | 0.00 | 61 | 1014.2 |
| 20260510091548 | 16 | 26 | 8.0 | 20.9 | 0.00 | 0.00 | 0.00 | 61 | 1014.2 |
| 20260510091039 | 16 | 23 | 9.7 | 20.9 | 0.00 | 0.00 | 0.00 | 61 | 1014.2 |
| 20260510090539 | 16 | 25 | 11.3 | 22.5 | 0.00 | 0.00 | 0.00 | 61 | 1014.2 |
| 20260510090048 | 17 | 34 | 11.3 | 22.5 | 0.00 | 0.00 | 0.00 | 61 | 1014.1 |
| 20260510085542 | 17 | 29 | 9.7 | 22.5 | 0.00 | 0.00 | 0.00 | 61 | 1014.0 |
| 20260510085039 | 17 | 33 | 11.3 | 22.5 | 0.00 | 0.00 | 0.00 | 61 | 1014.0 |
| 20260510084549 | 17 | 36 | 12.9 | 22.5 | 0.00 | 0.00 | 0.00 | 61 | 1014.0 |
| 20260510084040 | 17 | 33 | 14.5 | 22.5 | 0.00 | 0.00 | 0.00 | 62 | 1014.0 |
| 20260510083539 | 17 | 15 | 11.3 | 22.5 | 0.00 | 0.00 | 0.00 | 62 | 1014.0 |
| 20260510083051 | 17 | 36 | 12.9 | 22.5 | 0.00 | 0.00 | 0.00 | 62 | 1014.1 |
| 20260510082538 | 17 | 32 | 12.9 | 22.5 | 0.00 | 0.00 | 0.00 | 63 | 1014.0 |
| 20260510082039 | 17 | 13 | 9.7 | 20.9 | 0.00 | 0.00 | 0.00 | 63 | 1014.0 |
| 20260510081616 | 17 | 29 | 6.4 | 17.7 | 0.00 | 0.00 | 0.00 | 63 | 1013.9 |
| 20260510081040 | 17 | 17 | 6.4 | 14.5 | 0.00 | 0.00 | 0.00 | 63 | 1013.8 |
| 20260510080540 | 17 | 9 | 6.4 | 14.5 | 0.00 | 0.00 | 0.00 | 62 | 1013.7 |
| 20260510080051 | 17 | 27 | 4.8 | 12.9 | 0.00 | 0.00 | 0.00 | 62 | 1013.6 |
| 20260510075539 | 17 | 34 | 4.8 | 12.9 | 0.00 | 0.00 | 0.00 | 62 | 1013.6 |
| 20260510075040 | 17 | 31 | 6.4 | 12.9 | 0.00 | 0.00 | 0.00 | 62 | 1013.5 |
| 20260510074549 | 17 | 19 | 6.4 | 12.9 | 0.00 | 0.00 | 0.00 | 62 | 1013.4 |
| 20260510074040 | 17 | 31 | 6.4 | 12.9 | 0.00 | 0.00 | 0.00 | 61 | 1013.5 |
| 20260510073540 | 17 | 32 | 4.8 | 12.9 | 0.00 | 0.00 | 0.00 | 60 | 1013.6 |
| 20260510073049 | 18 | 9 | 4.8 | 9.7 | 0.00 | 0.00 | 0.00 | 60 | 1013.7 |
| 20260510072540 | 18 | 29 | 4.8 | 9.7 | 0.00 | 0.00 | 0.00 | 59 | 1013.6 |
| 20260510072043 | 18 | 20 | 3.2 | 8.0 | 0.00 | 0.00 | 0.00 | 59 | 1013.5 |
| 20260510071552 | 18 | 22 | 3.2 | 11.3 | 0.00 | 0.00 | 0.00 | 59 | 1013.6 |
| 20260510071040 | 18 | 28 | 3.2 | 14.5 | 0.00 | 0.00 | 0.00 | 58 | 1013.5 |
| 20260510070540 | 18 | 38 | 4.8 | 14.5 | 0.00 | 0.00 | 0.00 | 58 | 1013.4 |
| 20260510070050 | 18 | 38 | 6.4 | 14.5 | 0.00 | 0.00 | 0.00 | 58 | 1013.4 |
| 20260510065541 | 18 | 33 | 6.4 | 16.1 | 0.00 | 0.00 | 0.00 | 58 | 1013.3 |
| 20260510065040 | 18 | 51 | 6.4 | 16.1 | 0.00 | 0.00 | 0.00 | 58 | 1013.3 |
| 20260510064544 | 18 | 36 | 6.4 | 12.9 | 0.00 | 0.00 | 0.00 | 58 | 1013.3 |
| 20260510064039 | 18 | 38 | 4.8 | 12.9 | 0.00 | 0.00 | 0.00 | 58 | 1013.3 |
| 20260510063541 | 18 | 27 | 6.4 | 12.9 | 0.00 | 0.00 | 0.00 | 57 | 1013.2 |
| 20260510063049 | 18 | 24 | 4.8 | 9.7 | 0.00 | 0.00 | 0.00 | 56 | 1013.3 |
| 20260510062540 | 19 | 15 | 4.8 | 16.1 | 0.00 | 0.00 | 0.00 | 55 | 1013.2 |
| 20260510062040 | 19 | 22 | 3.2 | 16.1 | 0.00 | 0.00 | 0.00 | 55 | 1012.9 |
| 20260510061546 | 19 | 30 | 6.4 | 14.5 | 0.00 | 0.00 | 0.00 | 54 | 1012.7 |
| 20260510061042 | 20 | 39 | 3.2 | 8.0 | 0.00 | 0.00 | 0.00 | 53 | 1012.7 |
| 20260510060540 | 20 | 18 | 3.2 | 12.9 | 0.00 | 0.00 | 0.00 | 53 | 1012.6 |
| 20260510060053 | 20 | 27 | 4.8 | 12.9 | 0.00 | 0.00 | 0.00 | 52 | 1012.7 |
| 20260510055542 | 20 | 22 | 4.8 | 9.7 | 0.00 | 0.00 | 0.00 | 52 | 1012.4 |
| 20260510055041 | 20 | 15 | 3.2 | 11.3 | 0.00 | 0.00 | 0.00 | 51 | 1012.5 |
| 20260510054550 | 20 | 13 | 6.4 | 16.1 | 0.00 | 0.00 | 0.00 | 51 | 1012.4 |
| 20260510054040 | 20 | 9 | 6.4 | 16.1 | 0.00 | 0.00 | 0.00 | 51 | 1012.3 |
| 20260510053544 | 20 | 11 | 6.4 | 16.1 | 0.00 | 0.00 | 0.00 | 52 | 1012.1 |
| 20260510053052 | 19 | 9 | 6.4 | 16.1 | 0.00 | 0.00 | 0.00 | 54 | 1011.9 |
| 20260510052540 | 18 | 17 | 9.7 | 16.1 | 0.00 | 0.00 | 0.00 | 55 | 1011.9 |
| 20260510052040 | 18 | 20 | 6.4 | 12.9 | 0.00 | 0.00 | 0.00 | 56 | 1011.8 |
| 20260510051626 | 19 | 9 | 3.2 | 6.4 | 0.00 | 0.00 | 0.00 | 57 | 1011.7 |
| 20260510051044 | 19 | 330 | 1.6 | 3.2 | 0.00 | 0.00 | 0.00 | 56 | 1011.5 |
| 20260510050540 | 19 | 265 | 0.0 | 3.2 | 0.00 | 0.00 | 0.00 | 55 | 1011.5 |
| 20260510050052 | 19 | 137 | 0.0 | 3.2 | 0.00 | 0.00 | 0.00 | 54 | 1011.4 |
| 20260510045540 | 19 | 0 | 0.0 | 4.8 | 0.00 | 0.00 | 0.00 | 54 | 1011.5 |
| 20260510045040 | 20 | 51 | 0.0 | 4.8 | 0.00 | 0.00 | 0.00 | 54 | 1011.5 |
| 20260510044549 | 19 | 126 | 1.6 | 4.8 | 0.00 | 0.00 | 0.00 | 54 | 1011.5 |
| 20260510044040 | 20 | 0 | 0.0 | 4.8 | 0.00 | 0.00 | 0.00 | 54 | 1011.5 |
| 20260510043540 | 20 | 41 | 1.6 | 4.8 | 0.00 | 0.00 | 0.00 | 54 | 1011.5 |
| 20260510043125 | 20 | 38 | 0.0 | 3.2 | 0.00 | 0.00 | 0.00 | 54 | 1011.5 |
| 20260510042540 | 20 | 126 | 1.6 | 4.8 | 0.00 | 0.00 | 0.00 | 55 | 1011.7 |
| 20260510042042 | 20 | 9 | 1.6 | 6.4 | 0.00 | 0.00 | 0.00 | 55 | 1011.8 |
| 20260510041550 | 20 | 334 | 1.6 | 6.4 | 0.00 | 0.00 | 0.00 | 54 | 1011.9 |
| 20260510041040 | 20 | 26 | 1.6 | 4.8 | 0.00 | 0.00 | 0.00 | 54 | 1011.9 |
| 20260510040540 | 20 | 26 | 1.6 | 4.8 | 0.00 | 0.00 | 0.00 | 54 | 1011.8 |
| 20260510040051 | 20 | 19 | 0.0 | 4.8 | 0.00 | 0.00 | 0.00 | 54 | 1011.7 |
| 20260510035540 | 20 | 0 | 1.6 | 4.8 | 0.00 | 0.00 | 0.00 | 53 | 1011.8 |
| 20260510035044 | 20 | 51 | 1.6 | 4.8 | 0.00 | 0.00 | 0.00 | 53 | 1011.7 |
| 20260510034553 | 20 | 146 | 1.6 | 6.4 | 0.00 | 0.00 | 0.00 | 53 | 1011.6 |
| 20260510034040 | 20 | 137 | 3.2 | 6.4 | 0.00 | 0.00 | 0.00 | 53 | 1011.5 |
| 20260510033543 | 20 | 55 | 3.2 | 6.4 | 0.00 | 0.00 | 0.00 | 53 | 1011.5 |
| 20260510033050 | 20 | 111 | 3.2 | 6.4 | 0.00 | 0.00 | 0.00 | 53 | 1011.3 |
| 20260510032540 | 20 | 85 | 1.6 | 4.8 | 0.00 | 0.00 | 0.00 | 53 | 1011.3 |
| 20260510032040 | 21 | 72 | 1.6 | 8.0 | 0.00 | 0.00 | 0.00 | 52 | 1011.3 |
| 20260510031615 | 21 | 59 | 1.6 | 9.7 | 0.00 | 0.00 | 0.00 | 52 | 1011.2 |
| 20260510031040 | 21 | 146 | 4.8 | 9.7 | 0.00 | 0.00 | 0.00 | 52 | 1011.0 |
| 20260510030540 | 21 | 153 | 0.0 | 8.0 | 0.00 | 0.00 | 0.00 | 51 | 1011.1 |
| 20260510030053 | 21 | 338 | 1.6 | 11.3 | 0.00 | 0.00 | 0.00 | 51 | 1011.2 |
| 20260510025540 | 21 | 0 | 3.2 | 11.3 | 0.00 | 0.00 | 0.00 | 50 | 1011.0 |
| 20260510025040 | 21 | 141 | 3.2 | 11.3 | 0.00 | 0.00 | 0.00 | 50 | 1011.0 |
| 20260510024552 | 22 | 209 | 4.8 | 11.3 | 0.00 | 0.00 | 0.00 | 49 | 1011.2 |
| 20260510024040 | 22 | 178 | 4.8 | 11.3 | 0.00 | 0.00 | 0.00 | 48 | 1011.5 |
| 20260510023540 | 22 | 235 | 3.2 | 11.3 | 0.00 | 0.00 | 0.00 | 47 | 1011.7 |
| 20260510023059 | 22 | 158 | 4.8 | 11.3 | 0.00 | 0.00 | 0.00 | 46 | 1011.5 |
| 20260510022540 | 23 | 159 | 3.2 | 12.9 | 0.00 | 0.00 | 0.00 | 45 | 1011.4 |
| 20260510022040 | 23 | 205 | 3.2 | 12.9 | 0.00 | 0.00 | 0.00 | 44 | 1011.5 |
| 20260510021552 | 23 | 234 | 1.6 | 11.3 | 0.00 | 0.00 | 0.00 | 44 | 1011.4 |
| 20260510021039 | 23 | 165 | 3.2 | 12.9 | 0.00 | 0.00 | 0.00 | 42 | 1011.4 |
| 20260510020546 | 24 | 153 | 4.8 | 12.9 | 0.00 | 0.00 | 0.00 | 41 | 1011.4 |
| 20260510020055 | 24 | 212 | 6.4 | 19.3 | 0.00 | 0.00 | 0.00 | 39 | 1011.7 |
| 20260510015542 | 24 | 142 | 8.0 | 19.3 | 0.00 | 0.00 | 0.00 | 37 | 1011.7 |
| 20260510015040 | 24 | 272 | 4.8 | 16.1 | 0.00 | 0.00 | 0.00 | 39 | 1011.5 |
| 20260510014553 | 24 | 275 | 1.6 | 8.0 | 0.00 | 0.00 | 0.00 | 38 | 1011.3 |
| 20260510014040 | 25 | 287 | 3.2 | 8.0 | 0.00 | 0.00 | 0.00 | 39 | 1011.0 |
| 20260510013542 | 25 | 137 | 1.6 | 8.0 | 0.00 | 0.00 | 0.00 | 36 | 1010.8 |
| 20260510013050 | 25 | 216 | 3.2 | 6.4 | 0.00 | 0.00 | 0.00 | 35 | 1010.6 |
| 20260510012541 | 25 | 205 | 1.6 | 6.4 | 0.00 | 0.00 | 0.00 | 35 | 1010.3 |
| 20260510012043 | 25 | 158 | 1.6 | 12.9 | 0.00 | 0.00 | 0.00 | 34 | 1010.0 |
| 20260510011606 | 25 | 144 | 3.2 | 14.5 | 0.00 | 0.00 | 0.00 | 33 | 1009.7 |
| 20260510011039 | 25 | 144 | 6.4 | 20.9 | 0.00 | 0.00 | 0.00 | 33 | 1009.2 |
| 20260510010543 | 25 | 133 | 11.3 | 20.9 | 0.00 | 0.00 | 0.00 | 32 | 1008.9 |
| 20260510010104 | 26 | 142 | 9.7 | 20.9 | 0.00 | 0.00 | 0.00 | 32 | 1008.6 |
| 20260510005539 | 26 | 147 | 11.3 | 17.7 | 0.00 | 0.00 | 0.00 | 32 | 1008.6 |
| 20260510005040 | 26 | 131 | 6.4 | 17.7 | 0.00 | 0.00 | 0.00 | 31 | 1008.4 |
| 20260510004549 | 26 | 140 | 11.3 | 17.7 | 0.00 | 0.00 | 0.00 | 30 | 1008.2 |
| 20260510004043 | 26 | 146 | 9.7 | 20.9 | 0.00 | 0.00 | 0.00 | 30 | 1008.2 |
| 20260510003540 | 26 | 138 | 11.3 | 20.9 | 0.00 | 0.00 | 0.00 | 29 | 1008.0 |
| 20260510003046 | 27 | 120 | 12.9 | 19.3 | 0.00 | 0.00 | 0.00 | 29 | 1007.8 |
| 20260510002539 | 27 | 159 | 11.3 | 22.5 | 0.00 | 0.00 | 0.00 | 29 | 1007.8 |
| 20260510002039 | 27 | 137 | 9.7 | 22.5 | 0.00 | 0.00 | 0.00 | 28 | 1007.6 |
| 20260510001545 | 27 | 163 | 11.3 | 20.9 | 0.00 | 0.00 | 0.00 | 28 | 1007.5 |
| 20260510001040 | 27 | 196 | 9.7 | 24.1 | 0.00 | 0.00 | 0.00 | 28 | 1007.6 |
| 20260510000540 | 27 | 133 | 12.9 | 24.1 | 0.00 | 0.00 | 0.00 | 27 | 1007.6 |
| 20260510000048 | 28 | 135 | 14.5 | 22.5 | 0.00 | 0.00 | 0.00 | 26 | 1007.5 |
| 20260509235616 | 28 | 175 | 9.7 | 22.5 | 0.00 | 0.00 | 0.00 | 25 | 1007.5 |
| 20260509235040 | 28 | 173 | 9.7 | 19.3 | 0.00 | 0.00 | 0.00 | 24 | 1007.5 |
| 20260509234550 | 28 | 178 | 8.0 | 19.3 | 0.00 | 0.00 | 0.00 | 23 | 1007.5 |
| 20260509234043 | 29 | 178 | 6.4 | 16.1 | 0.00 | 0.00 | 0.00 | 22 | 1007.8 |
| 20260509233544 | 29 | 171 | 8.0 | 19.3 | 0.00 | 0.00 | 0.00 | 21 | 1007.8 |
| 20260509233050 | 29 | 175 | 9.7 | 20.9 | 0.00 | 0.00 | 0.00 | 23 | 1007.8 |
| 20260509232541 | 29 | 177 | 12.9 | 25.7 | 0.00 | 0.00 | 0.00 | 22 | 1007.9 |
| 20260509232040 | 29 | 182 | 11.3 | 25.7 | 0.00 | 0.00 | 0.00 | 23 | 1007.9 |
| 20260509231559 | 29 | 173 | 9.7 | 25.7 | 0.00 | 0.00 | 0.00 | 22 | 1007.9 |
| 20260509231041 | 29 | 178 | 9.7 | 22.5 | 0.00 | 0.00 | 0.00 | 23 | 1007.9 |
| 20260509230540 | 30 | 178 | 6.4 | 16.1 | 0.00 | 0.00 | 0.00 | 24 | 1007.9 |
| 20260509230055 | 29 | 173 | 6.4 | 16.1 | 0.00 | 0.00 | 0.00 | 23 | 1007.9 |
| 20260509225541 | 30 | 182 | 4.8 | 16.1 | 0.00 | 0.00 | 0.00 | 23 | 1007.8 |
| 20260509225040 | 30 | 186 | 4.8 | 17.7 | 0.00 | 0.00 | 0.00 | 21 | 1007.8 |
| 20260509224549 | 30 | 182 | 6.4 | 20.9 | 0.00 | 0.00 | 0.00 | 20 | 1007.8 |
| 20260509224040 | 30 | 180 | 9.7 | 20.9 | 0.00 | 0.00 | 0.00 | 21 | 1007.8 |
| 20260509223541 | 30 | 182 | 6.4 | 17.7 | 0.00 | 0.00 | 0.00 | 21 | 1007.9 |
| 20260509223052 | 30 | 183 | 11.3 | 17.7 | 0.00 | 0.00 | 0.00 | 20 | 1007.8 |
| 20260509222541 | 30 | 182 | 4.8 | 20.9 | 0.00 | 0.00 | 0.00 | 23 | 1007.8 |
| 20260509222040 | 30 | 193 | 8.0 | 30.6 | 0.00 | 0.00 | 0.00 | 22 | 1007.7 |
| 20260509221549 | 30 | 182 | 8.0 | 32.2 | 0.00 | 0.00 | 0.00 | 21 | 1007.7 |
| 20260509221041 | 30 | 182 | 9.7 | 32.2 | 0.00 | 0.00 | 0.00 | 20 | 1007.7 |
| 20260509220541 | 30 | 186 | 8.0 | 24.1 | 0.00 | 0.00 | 0.00 | 20 | 1007.7 |
| 20260509220052 | 30 | 184 | 9.7 | 29.0 | 0.00 | 0.00 | 0.00 | 20 | 1007.6 |
| 20260509215541 | 30 | 183 | 8.0 | 30.6 | 0.00 | 0.00 | 0.00 | 20 | 1007.6 |
| 20260509215045 | 30 | 182 | 12.9 | 30.6 | 0.00 | 0.00 | 0.00 | 20 | 1007.6 |
| 20260509214551 | 30 | 169 | 4.8 | 25.7 | 0.00 | 0.00 | 0.00 | 21 | 1007.6 |
| 20260509214040 | 30 | 182 | 6.4 | 25.7 | 0.00 | 0.00 | 0.00 | 22 | 1007.7 |
| 20260509213540 | 30 | 157 | 4.8 | 27.4 | 0.00 | 0.00 | 0.00 | 20 | 1007.7 |
| 20260509213102 | 30 | 0 | 11.3 | 27.4 | 0.00 | 0.00 | 0.00 | 20 | 1007.8 |
| 20260509212542 | 30 | 178 | 9.7 | 25.7 | 0.00 | 0.00 | 0.00 | 20 | 1007.8 |
| 20260509212041 | 30 | 182 | 1.6 | 20.9 | 0.00 | 0.00 | 0.00 | 22 | 1008.0 |
| 20260509211610 | 30 | 178 | 3.2 | 22.5 | 0.00 | 0.00 | 0.00 | 21 | 1008.0 |
| 20260509211041 | 30 | 137 | 9.7 | 29.0 | 0.00 | 0.00 | 0.00 | 19 | 1008.0 |
| 20260509210544 | 30 | 190 | 11.3 | 29.0 | 0.00 | 0.00 | 0.00 | 21 | 1008.2 |
| 20260509210058 | 30 | 178 | 9.7 | 24.1 | 0.00 | 0.00 | 0.00 | 21 | 1008.2 |
| 20260509205540 | 30 | 167 | 6.4 | 14.5 | 0.00 | 0.00 | 0.00 | 21 | 1008.2 |
| 20260509205040 | 30 | 182 | 4.8 | 16.1 | 0.00 | 0.00 | 0.00 | 21 | 1008.3 |
| 20260509204602 | 30 | 236 | 4.8 | 17.7 | 0.00 | 0.00 | 0.00 | 23 | 1008.4 |
| 20260509204040 | 30 | 186 | 4.8 | 17.7 | 0.00 | 0.00 | 0.00 | 24 | 1008.5 |
| 20260509203540 | 30 | 177 | 3.2 | 14.5 | 0.00 | 0.00 | 0.00 | 23 | 1008.5 |
| 20260509203100 | 30 | 215 | 4.8 | 16.1 | 0.00 | 0.00 | 0.00 | 22 | 1008.6 |
| 20260509202544 | 30 | 183 | 6.4 | 16.1 | 0.00 | 0.00 | 0.00 | 22 | 1008.7 |
| 20260509202039 | 30 | 177 | 6.4 | 17.7 | 0.00 | 0.00 | 0.00 | 22 | 1008.7 |
| 20260509201549 | 30 | 178 | 3.2 | 19.3 | 0.00 | 0.00 | 0.00 | 23 | 1008.6 |
| 20260509201040 | 30 | 215 | 6.4 | 19.3 | 0.00 | 0.00 | 0.00 | 22 | 1008.7 |
| 20260509200540 | 30 | 196 | 4.8 | 14.5 | 0.00 | 0.00 | 0.00 | 24 | 1008.9 |
| 20260509200044 | 30 | 178 | 4.8 | 27.4 | 0.00 | 0.00 | 0.00 | 25 | 1008.9 |
| 20260509195540 | 30 | 182 | 11.3 | 27.4 | 0.00 | 0.00 | 0.00 | 22 | 1008.8 |
| 20260509195039 | 30 | 177 | 1.6 | 12.9 | 0.00 | 0.00 | 0.00 | 21 | 1009.0 |
| 20260509194549 | 30 | 0 | 1.6 | 19.3 | 0.00 | 0.00 | 0.00 | 20 | 1009.2 |
| 20260509194040 | 30 | 205 | 8.0 | 27.4 | 0.00 | 0.00 | 0.00 | 21 | 1009.2 |
| 20260509193540 | 30 | 183 | 8.0 | 30.6 | 0.00 | 0.00 | 0.00 | 23 | 1009.3 |
| 20260509193044 | 30 | 155 | 14.5 | 30.6 | 0.00 | 0.00 | 0.00 | 24 | 1009.2 |
| 20260509192542 | 30 | 183 | 1.6 | 12.9 | 0.00 | 0.00 | 0.00 | 25 | 1009.2 |
| 20260509192040 | 30 | 178 | 6.4 | 12.9 | 0.00 | 0.00 | 0.00 | 27 | 1009.3 |
| 20260509191543 | 30 | 175 | 4.8 | 12.9 | 0.00 | 0.00 | 0.00 | 23 | 1009.3 |
| 20260509191039 | 30 | 195 | 6.4 | 12.9 | 0.00 | 0.00 | 0.00 | 22 | 1009.4 |
| 20260509190539 | 30 | 291 | 1.6 | 9.7 | 0.00 | 0.00 | 0.00 | 24 | 1009.4 |
| 20260509190054 | 30 | 200 | 3.2 | 20.9 | 0.00 | 0.00 | 0.00 | 21 | 1009.4 |
| 20260509185539 | 30 | 178 | 3.2 | 20.9 | 0.00 | 0.00 | 0.00 | 24 | 1009.5 |
| 20260509185039 | 30 | 188 | 4.8 | 12.9 | 0.00 | 0.00 | 0.00 | 26 | 1009.5 |
| 20260509184547 | 30 | 294 | 3.2 | 17.7 | 0.00 | 0.00 | 0.00 | 22 | 1009.6 |
| 20260509184040 | 29 | 205 | 3.2 | 17.7 | 0.00 | 0.00 | 0.00 | 23 | 1009.7 |
| 20260509183540 | 29 | 280 | 6.4 | 17.7 | 0.00 | 0.00 | 0.00 | 24 | 1009.8 |
| 20260509183052 | 29 | 195 | 1.6 | 11.3 | 0.00 | 0.00 | 0.00 | 25 | 1009.8 |
| 20260509182538 | 29 | 241 | 3.2 | 9.7 | 0.00 | 0.00 | 0.00 | 24 | 1009.9 |
| 20260509182040 | 29 | 273 | 3.2 | 16.1 | 0.00 | 0.00 | 0.00 | 24 | 1009.9 |
| 20260509181550 | 29 | 178 | 8.0 | 16.1 | 0.00 | 0.00 | 0.00 | 26 | 1010.0 |
| 20260509181040 | 28 | 173 | 3.2 | 14.5 | 0.00 | 0.00 | 0.00 | 25 | 1010.1 |
| 20260509180540 | 28 | 247 | 4.8 | 14.5 | 0.00 | 0.00 | 0.00 | 26 | 1010.2 |
| 20260509180052 | 28 | 196 | 8.0 | 14.5 | 0.00 | 0.00 | 0.00 | 24 | 1010.4 |
| 20260509175539 | 28 | 61 | 1.6 | 14.5 | 0.00 | 0.00 | 0.00 | 25 | 1010.4 |
| 20260509175043 | 28 | 254 | 4.8 | 16.1 | 0.00 | 0.00 | 0.00 | 24 | 1010.5 |
| 20260509174552 | 28 | 178 | 6.4 | 16.1 | 0.00 | 0.00 | 0.00 | 25 | 1010.6 |
| 20260509174039 | 28 | 234 | 8.0 | 17.7 | 0.00 | 0.00 | 0.00 | 26 | 1010.7 |
| 20260509173539 | 28 | 277 | 6.4 | 17.7 | 0.00 | 0.00 | 0.00 | 26 | 1010.7 |
| 20260509173047 | 28 | 180 | 3.2 | 17.7 | 0.00 | 0.00 | 0.00 | 25 | 1010.7 |
| 20260509172539 | 28 | 198 | 3.2 | 22.5 | 0.00 | 0.00 | 0.00 | 27 | 1010.8 |
| 20260509172039 | 28 | 178 | 6.4 | 22.5 | 0.00 | 0.00 | 0.00 | 26 | 1010.7 |
| 20260509171548 | 28 | 243 | 6.4 | 16.1 | 0.00 | 0.00 | 0.00 | 29 | 1010.8 |
| 20260509171041 | 27 | 246 | 6.4 | 22.5 | 0.00 | 0.00 | 0.00 | 29 | 1011.0 |
| 20260509170539 | 27 | 280 | 6.4 | 22.5 | 0.00 | 0.00 | 0.00 | 26 | 1011.0 |
| 20260509170050 | 27 | 277 | 4.8 | 17.7 | 0.00 | 0.00 | 0.00 | 27 | 1011.0 |
| 20260509165540 | 27 | 300 | 3.2 | 17.7 | 0.00 | 0.00 | 0.00 | 29 | 1011.2 |
| 20260509165040 | 27 | 182 | 4.8 | 17.7 | 0.00 | 0.00 | 0.00 | 29 | 1011.2 |
| 20260509164543 | 27 | 221 | 4.8 | 17.7 | 0.00 | 0.00 | 0.00 | 31 | 1011.1 |
| 20260509164040 | 27 | 268 | 3.2 | 16.1 | 0.00 | 0.00 | 0.00 | 28 | 1011.0 |
| 20260509163542 | 26 | 212 | 4.8 | 17.7 | 0.00 | 0.00 | 0.00 | 31 | 1011.0 |
| 20260509163057 | 26 | 265 | 4.8 | 17.7 | 0.00 | 0.00 | 0.00 | 29 | 1011.0 |
| 20260509162540 | 26 | 303 | 6.4 | 17.7 | 0.00 | 0.00 | 0.00 | 30 | 1011.1 |
| 20260509162039 | 26 | 261 | 6.4 | 14.5 | 0.00 | 0.00 | 0.00 | 30 | 1011.2 |
| 20260509161544 | 26 | 192 | 4.8 | 25.7 | 0.00 | 0.00 | 0.00 | 32 | 1011.3 |
| 20260509161039 | 26 | 239 | 4.8 | 25.7 | 0.00 | 0.00 | 0.00 | 32 | 1011.2 |
| 20260509160539 | 26 | 182 | 8.0 | 24.1 | 0.00 | 0.00 | 0.00 | 35 | 1011.1 |
| 20260509160048 | 26 | 273 | 6.4 | 20.9 | 0.00 | 0.00 | 0.00 | 34 | 1011.2 |
| 20260509155538 | 25 | 306 | 6.4 | 20.9 | 0.00 | 0.00 | 0.00 | 35 | 1011.2 |
| 20260509155041 | 25 | 226 | 4.8 | 19.3 | 0.00 | 0.00 | 0.00 | 35 | 1011.0 |
| 20260509154543 | 25 | 205 | 6.4 | 19.3 | 0.00 | 0.00 | 0.00 | 37 | 1011.1 |
| 20260509154038 | 25 | 167 | 3.2 | 19.3 | 0.00 | 0.00 | 0.00 | 41 | 1011.1 |
| 20260509153539 | 24 | 252 | 8.0 | 19.3 | 0.00 | 0.00 | 0.00 | 38 | 1011.2 |
| 20260509153044 | 24 | 161 | 6.4 | 19.3 | 0.00 | 0.00 | 0.00 | 38 | 1011.1 |
| 20260509152539 | 23 | 230 | 8.0 | 17.7 | 0.00 | 0.00 | 0.00 | 41 | 1011.0 |
| 20260509152040 | 23 | 245 | 6.4 | 16.1 | 0.00 | 0.00 | 0.00 | 43 | 1011.1 |
| 20260509151549 | 23 | 291 | 4.8 | 14.5 | 0.00 | 0.00 | 0.00 | 45 | 1011.2 |
| 20260509151039 | 22 | 164 | 3.2 | 16.1 | 0.00 | 0.00 | 0.00 | 45 | 1011.1 |
| 20260509150539 | 22 | 230 | 4.8 | 16.1 | 0.00 | 0.00 | 0.00 | 46 | 1011.2 |
| 20260509150045 | 22 | 51 | 4.8 | 12.9 | 0.00 | 0.00 | 0.00 | 50 | 1011.1 |
| 20260509145540 | 22 | 288 | 3.2 | 9.7 | 0.00 | 0.00 | 0.00 | 57 | 1011.1 |
| 20260509145040 | 21 | 236 | 3.2 | 9.7 | 0.00 | 0.00 | 0.00 | 58 | 1011.0 |
| 20260509144546 | 21 | 227 | 3.2 | 12.9 | 0.00 | 0.00 | 0.00 | 61 | 1010.9 |
| 20260509144040 | 21 | 243 | 6.4 | 12.9 | 0.00 | 0.00 | 0.00 | 59 | 1010.9 |
| 20260509143539 | 20 | 265 | 4.8 | 11.3 | 0.00 | 0.00 | 0.00 | 62 | 1010.9 |
| 20260509143053 | 20 | 286 | 3.2 | 11.3 | 0.00 | 0.00 | 0.00 | 64 | 1011.0 |
| 20260509142539 | 20 | 309 | 4.8 | 11.3 | 0.00 | 0.00 | 0.00 | 63 | 1011.1 |
| 20260509142038 | 19 | 120 | 3.2 | 11.3 | 0.00 | 0.00 | 0.00 | 64 | 1011.1 |
| 20260509141551 | 18 | 249 | 4.8 | 12.9 | 0.00 | 0.00 | 0.00 | 66 | 1011.0 |
| 20260509141040 | 18 | 217 | 1.6 | 12.9 | 0.00 | 0.00 | 0.00 | 68 | 1011.0 |
| 20260509140539 | 18 | 265 | 3.2 | 12.9 | 0.00 | 0.00 | 0.00 | 69 | 1011.0 |
| 20260509140051 | 17 | 137 | 1.6 | 9.7 | 0.00 | 0.00 | 0.00 | 73 | 1011.1 |
| 20260509135539 | 17 | 255 | 1.6 | 6.4 | 0.00 | 0.00 | 0.00 | 76 | 1011.0 |
| 20260509135039 | 16 | 254 | 3.2 | 6.4 | 0.00 | 0.00 | 0.00 | 79 | 1011.0 |
| 20260509134553 | 16 | 0 | 1.6 | 12.9 | 0.00 | 0.00 | 0.00 | 80 | 1011.0 |
| 20260509134039 | 15 | 291 | 4.8 | 12.9 | 0.00 | 0.00 | 0.00 | 81 | 1011.0 |
| 20260509133541 | 15 | 244 | 4.8 | 12.9 | 0.00 | 0.00 | 0.00 | 84 | 1011.0 |
| 20260509133058 | 14 | 221 | 4.8 | 11.3 | 0.00 | 0.00 | 0.00 | 86 | 1011.0 |
| 20260509132539 | 13 | 273 | 3.2 | 11.3 | 0.00 | 0.00 | 0.00 | 88 | 1011.1 |
| 20260509132039 | 12 | 279 | 1.6 | 4.8 | 0.00 | 0.00 | 0.00 | 89 | 1011.1 |
| 20260509131549 | 12 | 221 | 1.6 | 4.8 | 0.00 | 0.00 | 0.00 | 89 | 1011.1 |
| 20260509131043 | 12 | 242 | 1.6 | 4.8 | 0.00 | 0.00 | 0.00 | 90 | 1011.1 |
| 20260509130539 | 11 | 230 | 1.6 | 4.8 | 0.00 | 0.00 | 0.00 | 90 | 1011.0 |
| 20260509130044 | 11 | 247 | 0.0 | 4.8 | 0.00 | 0.00 | 0.00 | 91 | 1011.0 |
| 20260509125539 | 11 | 0 | 1.6 | 4.8 | 0.00 | 0.00 | 0.00 | 91 | 1010.9 |
| 20260509125039 | 10 | 120 | 0.0 | 3.2 | 0.00 | 0.00 | 0.00 | 91 | 1011.0 |
| 20260509124543 | 10 | 41 | 0.0 | 3.2 | 0.00 | 0.00 | 0.00 | 91 | 1010.9 |
| 20260509124039 | 9 | 26 | 1.6 | 3.2 | 0.00 | 0.00 | 0.00 | 91 | 1010.8 |
| 20260509123539 | 8 | 9 | 0.0 | 3.2 | 0.00 | 0.00 | 0.00 | 91 | 1010.7 |
| 20260509123047 | 8 | 309 | 0.0 | 3.2 | 0.00 | 0.00 | 0.00 | 90 | 1010.7 |
| 20260509122539 | 8 | 0 | 0.0 | 3.2 | 0.00 | 0.00 | 0.00 | 90 | 1010.7 |
| 20260509122042 | 7 | 0 | 0.0 | 3.2 | 0.00 | 0.00 | 0.00 | 90 | 1010.6 |
| 20260509121549 | 7 | 22 | 1.6 | 3.2 | 0.00 | 0.00 | 0.00 | 90 | 1010.6 |
| 20260509121042 | 7 | 34 | 0.0 | 1.6 | 0.00 | 0.00 | 0.00 | 89 | 1010.4 |